Regional Weather Roundup
Issued by NWS

Home | Current Version | Previous Version | Text Only | Print | Product List | Glossary Off
Versions: 1 2 3 4 5 6 7 8 9 10 11 12 13 14 15 16 17 18 19 20 21 22 23 24 25 26 27 28 29 30 31 32 33 34 35 36 37 38 39 40 41 42 43 44 45 46 47 48 49 50

000
ASUS45 KCYS 191010
RWRWY

WYOMING REGIONAL WEATHER ROUNDUP
NATIONAL WEATHER SERVICE CHEYENNE WY
400 AM MDT TUE AUG 19 2014

NOTE:  "FAIR" INDICATES FEW OR NO CLOUDS BELOW 12,000 FEET
WITH NO SIGNIFICANT WEATHER AND/OR OBSTRUCTIONS TO VISIBILITY.

WYZ001-191100-
YELLOWSTONE NATIONAL PARK

CITY           SKY/WX    TMP DP  RH WIND       PRES   REMARKS
LK YELLOWSTONE   N/A     39  37  92 NW3       30.19S
W YELLOWSTONE  NOT AVBL

$$
WYZ002>013-054>058-071-098>099-191100-
NORTHERN WYOMING

CITY           SKY/WX    TMP DP  RH WIND       PRES   REMARKS
JACKSON        PTCLDY    46  39  76 N7        30.09R
CODY           CLEAR     64  39  39 SW6       29.94F
GREYBULL       CLEAR     59  46  62 S5        29.88R
WORLAND        CLEAR     55  42  61 CALM      29.89S
SHERIDAN       CLEAR     51  47  86 SW6       29.87F
BUFFALO        CLEAR     64  44  48 SW6       29.94F
GILLETTE       CLEAR     62  49  62 SE3       29.91S
HULETT         FAIR      59  48  67 MISG      29.93
NEWCASTLE      FAIR      66  46  48 CALM      29.93

$$
WYZ014>020-022>026-101>103-191100-
CENTRAL WYOMING

CITY           SKY/WX    TMP DP  RH WIND       PRES   REMARKS
BIG PINEY      MOCLDY    51  34  52 N5        30.12S
PINEDALE       PTSUNNY   43  37  81 NW3       30.14S
DUBOIS         CLOUDY    52  34  50 NW10      30.12S
LANDER         MOCLDY    65  35  33 SW9       29.99R
RIVERTON       MOCLDY    59  42  53 NW8       29.99R
CASPER         PTCLDY    52  40  63 CALM      29.97S
DOUGLAS        PTCLDY    56  48  74 SE5       29.96F

$$
WYZ021-027>030-104>119-191100-
SOUTHERN WYOMING

CITY           SKY/WX    TMP DP  RH WIND       PRES   REMARKS
EVANSTON       MOCLDY    61  33  35 SW12      30.11F
KEMMERER       CLOUDY    52  39  62 N12       30.12F
FORT BRIDGER   FAIR      62  34  35 W8        30.12S
ROCK SPRINGS   MOCLDY    59  31  34 NE3       30.07S
DIXON          FAIR      56  35  44 NE7       30.08F
RAWLINS        PTCLDY    49  32  52 N3        30.08S
SARATOGA       FAIR      50  36  57 MISG      30.10F
LARAMIE        PTCLDY    49  42  77 S9        30.11F
CHEYENNE       CLEAR     55  49  80 W6        30.06F
TORRINGTON     CLEAR     59  53  80 E9        29.93F
PINE BLUFFS    FAIR      52  50  93 S6        30.01F

$$



USA.gov is the U.S. government's official web portal to all federal, state and local government web resources and services.